[[{"header":{"parameterUnit":"m.s-1","parameterCategory":1,"la1":30.2991,"la2":30.254,"lo1":-89.0895,"lo2":-89.0444,"dy":0.0017,"dx":0.0017,"nx":28,"ny":28,"refTime":"2025-02-12T09:00:00:Z","depth":0,"parameterNumber":2,"parameterNumberName":"U-component_of_WINDS"},"data":[0,0,0,0,0,0,0,0,0,0,0,0,0,0,0,0,0,0,0,0,0,0,0,0,0,0,0,0,0,0,0,0,0,0,0,0,0,0,0,0,0,0,0,0,0,0,0,0,0,0,0,0,0,0,0,0,0,0,-1.0645,-1.0644,0,-1.0574,-1.0573,-1.0573,-1.0547,-1.0547,-1.0547,-1.0548,-1.0473,-1.0471,-1.0469,0,0,0,0,0,0,0,0,0,0,0,0,0,-1.0754,-1.0752,-1.0645,-1.0644,-1.0643,-1.0574,-1.0573,-1.0572,-1.0547,-1.0547,-1.0547,-1.0548,-1.0474,-1.0471,-1.0469,0,0,0,0,0,0,0,0,0,0,0,0,0,-1.0697,-1.0751,-1.0645,-1.0622,-1.0619,-1.0574,-1.0573,-1.0572,-1.0547,-1.0547,-1.0547,-1.0548,-1.0475,-1.0471,-1.0468,-1.044,0,0,-1.0458,-1.0457,0,0,0,0,0,0,0,0,-1.07,-1.0693,-1.0626,-1.0623,-1.062,-1.057,-1.0584,-1.0528,-1.0547,-1.0574,-1.0548,-1.0548,-1.0505,-1.0499,-1.0485,-1.0437,-1.0434,-1.0458,-1.0456,-1.0454,-1.0453,0,0,0,0,0,0,0,-1.0704,-1.0696,-1.0617,-1.0625,-1.0622,-1.0614,-1.0606,-1.0574,-1.0538,-1.0572,-1.057,-1.0562,-1.0503,-1.0488,-1.0483,-1.0433,-1.0458,-1.0455,-1.0453,-1.0452,-1.0356,-1.0355,0,0,0,0,0,0,-1.0712,-1.0699,-1.0619,-1.0615,-1.0662,-1.0612,-1.0603,-1.0586,-1.0539,-1.0532,-1.0562,-1.0561,-1.0494,-1.0487,-1.048,-1.0443,-1.0454,-1.0451,-1.0449,-1.0357,-1.0356,-1.0355,0,0,0,0,0,0,-1.0715,-1.0706,-1.0622,-1.0656,-1.0645,-1.061,-1.059,-1.0584,-1.0569,-1.0531,-1.0524,-1.0553,-1.0494,-1.0485,-1.045,-1.044,-1.045,-1.0447,-1.0357,-1.0356,-1.0356,-1.037,0,0,0,0,0,0,-1.0718,-1.0707,-1.0697,-1.0656,-1.0643,-1.0594,-1.0589,-1.0582,-1.0564,-1.0562,-1.0521,-1.0514,-1.0493,-1.0455,-1.0447,-1.0436,-1.0444,-1.0358,-1.0357,-1.0356,-1.037,-1.037,-1.0369,0,0,0,0,0,-1.0722,-1.0703,-1.0696,-1.0687,-1.063,-1.0594,-1.0586,-1.0563,-1.0563,-1.0552,-1.0527,-1.0516,-1.0443,-1.0452,-1.0442,-1.043,-1.0358,-1.0357,-1.0356,-1.037,-1.037,-1.0369,0,0,0,0,0,0,-1.0743,-1.0698,-1.0689,-1.0657,-1.0629,-1.0589,-1.0575,-1.0563,-1.0534,-1.0534,-1.0505,-1.0496,-1.0463,-1.0443,-1.0454,-1.04,-1.04,-1.0397,-1.0414,-1.0413,-1.0413,-1.0418,-1.0441,0,0,0,0,0,-1.0744,-1.0719,-1.068,-1.0656,-1.0642,-1.0611,-1.0594,-1.0578,-1.0548,-1.0536,-1.0509,-1.0479,-1.0449,-1.043,-1.0401,-1.0367,-1.0357,-1.0354,-1.0354,-1.0353,-1.0351,-1.0329,-1.0327,-1.0351,-1.0351,-1.0351,0,0,-1.0746,-1.0718,-1.0704,-1.0659,-1.0636,-1.0609,-1.0601,-1.0574,-1.0553,-1.0531,-1.0497,-1.0476,-1.0441,-1.0406,-1.0389,-1.0388,-1.0342,-1.0352,-1.0352,-1.0349,-1.0328,-1.0326,-1.0324,-1.035,-1.0351,-1.0351,0,0,-1.0735,-1.0712,-1.0688,-1.0664,-1.0629,-1.0608,-1.0602,-1.0563,-1.0549,-1.0514,-1.0496,-1.0471,-1.0421,-1.0396,-1.0377,-1.0354,-1.0342,-1.0346,-1.0343,-1.0323,-1.0321,-1.0319,-1.0309,-1.0306,-1.0343,-1.0343,-1.0343,0,-1.0741,-1.0701,-1.0677,-1.065,-1.063,-1.0609,-1.0584,-1.0562,-1.0519,-1.0505,-1.0505,-1.044,-1.0415,-1.0373,-1.0368,-1.0353,-1.0344,-1.035,-1.0323,-1.0321,-1.0319,-1.0309,-1.0306,-1.0344,-1.0344,-1.0344,-1.0344,0,-1.071,-1.0682,-1.0667,-1.0625,-1.0604,-1.0578,-1.0548,-1.0529,-1.0515,-1.0494,-1.0457,-1.0426,-1.0389,-1.0378,-1.0364,-1.0334,-1.0334,-1.0329,-1.0328,-1.0318,-1.0308,-1.0304,-1.0344,-1.0344,-1.0344,-1.0344,0,0,-1.0711,-1.0655,-1.065,-1.063,-1.0589,-1.0566,-1.0538,-1.0503,-1.0486,-1.0456,-1.0431,-1.0389,-1.0383,-1.0361,-1.0344,-1.0326,-1.0308,-1.0323,-1.0321,-1.032,-1.0271,-1.0274,-1.0271,-1.03,-1.03,-1.0299,-1.0273,0,-1.0694,-1.0644,-1.062,-1.058,-1.0553,-1.0532,-1.0507,-1.0479,-1.0458,-1.0431,-1.0407,-1.0377,-1.0372,-1.0359,-1.034,-1.0315,-1.0298,-1.0316,-1.0275,-1.0274,-1.0284,-1.0266,-1.027,-1.0247,-1.027,-1.0269,-1.0269,0,-1.0667,-1.0637,-1.0594,-1.0554,-1.0542,-1.0521,-1.0485,-1.046,-1.0426,-1.0412,-1.0387,-1.037,-1.0338,-1.034,-1.0295,-1.0308,-1.029,-1.0274,-1.0273,-1.0267,-1.027,-1.0259,-1.024,-1.0236,-1.0263,-1.0263,-1.0264,0,-1.0671,-1.062,-1.0587,-1.0571,-1.0524,-1.0509,-1.0488,-1.0455,-1.0434,-1.0403,-1.0388,-1.0354,-1.0334,-1.0307,-1.0281,-1.0285,-1.0238,-1.0238,-1.0223,-1.0224,-1.0214,-1.0215,-1.019,-1.0204,-1.0204,-1.0204,-1.0204,0,-1.0653,-1.0628,-1.0588,-1.0567,-1.0537,-1.051,-1.048,-1.0458,-1.0428,-1.0402,-1.0382,-1.0358,-1.0325,-1.0296,-1.0275,-1.024,-1.0232,-1.0218,-1.0213,-1.022,-1.0221,-1.0206,-1.0207,-1.0203,-1.0204,-1.0204,-1.0204,0,-1.0652,-1.0625,-1.0587,-1.0545,-1.0534,-1.0513,-1.0477,-1.0456,-1.0433,-1.04,-1.0391,-1.0355,-1.032,-1.0291,-1.0245,-1.0231,-1.0194,-1.0188,-1.0205,-1.0202,-1.0189,-1.019,-1.0153,-1.0146,-1.0167,-1.0166,-1.0166,0,-1.0643,-1.0623,-1.0578,-1.0559,-1.0539,-1.0509,-1.0487,-1.0459,-1.0437,-1.0396,-1.0379,-1.0343,-1.0312,-1.0257,-1.0226,-1.019,-1.0183,-1.0172,-1.0177,-1.0184,-1.0181,-1.0182,-1.0179,-1.0172,-1.0172,-1.0172,-1.0172,0,-1.0629,-1.0615,-1.0586,-1.055,-1.0525,-1.0496,-1.0466,-1.0451,-1.0417,-1.0394,-1.0357,-1.0333,-1.0286,-1.0249,-1.021,-1.0188,-1.0173,-1.017,-1.0165,-1.0171,-1.0181,-1.0173,-1.0203,-1.0171,-1.0171,-1.0171,-1.0171,-1.0171,-1.0622,-1.0602,-1.0567,-1.0534,-1.0508,-1.048,-1.0457,-1.0432,-1.0401,-1.036,-1.0345,-1.0308,-1.0272,-1.0218,-1.0195,-1.0164,-1.0163,-1.0155,-1.0153,-1.0151,-1.0151,-1.0187,-1.0157,-1.0157,-1.0157,-1.0157,-1.0157,0,-1.0606,-1.0582,-1.0551,-1.0509,-1.0483,-1.0472,-1.0438,-1.0416,-1.0383,-1.0351,-1.0321,-1.0278,-1.0242,-1.0208,-1.017,-1.0152,-1.0144,-1.0142,-1.0143,-1.0137,-1.0156,-1.0164,-1.0149,-1.0149,-1.0149,-1.0149,-1.0149,-1.0149,-1.0594,-1.0559,-1.0541,-1.0492,-1.0468,-1.0431,-1.0412,-1.0385,-1.036,-1.0313,-1.0283,-1.0261,-1.0227,-1.0186,-1.0152,-1.0143,-1.0129,-1.0129,-1.0118,-1.0135,-1.0137,-1.0138,-1.0145,-1.0127,-1.0127,-1.0102,-1.0102,-1.0101]},{"header":{"parameterUnit":"m.s-1","parameterCategory":1,"la1":30.2991,"la2":30.254,"lo1":-89.0895,"lo2":-89.0444,"dy":0.0017,"dx":0.0017,"nx":28,"ny":28,"refTime":"2025-02-12T09:00:00:Z","depth":0,"parameterNumber":3,"parameterNumberName":"V-component_of_WINDS"},"data":[0,0,0,0,0,0,0,0,0,0,0,0,0,0,0,0,0,0,0,0,0,0,0,0,0,0,0,0,0,0,0,0,0,0,0,0,0,0,0,0,0,0,0,0,0,0,0,0,0,0,0,0,0,0,0,0,0,0,6.0223,6.0226,0,6.0472,6.0475,6.0478,6.05,6.0498,6.0495,6.0493,6.0747,6.0756,6.0766,0,0,0,0,0,0,0,0,0,0,0,0,0,5.9768,5.9776,6.0223,6.0226,6.0229,6.0472,6.0475,6.0478,6.0501,6.0498,6.0494,6.0491,6.0744,6.0755,6.0766,0,0,0,0,0,0,0,0,0,0,0,0,0,5.9986,5.9779,6.0222,6.027,6.0276,6.0471,6.0475,6.0479,6.0502,6.0498,6.0494,6.049,6.0741,6.0754,6.0768,6.0932,0,0,6.081,6.0816,0,0,0,0,0,0,0,0,5.9974,6.0003,6.026,6.0267,6.0275,6.0451,6.0408,6.0631,6.0503,6.0416,6.0493,6.0488,6.0652,6.0673,6.0728,6.0944,6.0955,6.0811,6.082,6.0826,6.083,0,0,0,0,0,0,0,5.9959,5.9992,6.0321,6.0263,6.0272,6.0279,6.0305,6.045,6.0553,6.0423,6.0426,6.0455,6.0655,6.0715,6.0734,6.0959,6.0811,6.0823,6.0832,6.0837,6.1326,6.133,0,0,0,0,0,0,5.9934,5.9979,6.0314,6.0329,6.0111,6.029,6.032,6.0398,6.0552,6.0571,6.0458,6.0455,6.0693,6.0718,6.0743,6.0949,6.0826,6.0839,6.0847,6.1321,6.1327,6.1332,0,0,0,0,0,0,5.9925,5.9964,6.0304,6.0155,6.0199,6.0302,6.039,6.0405,6.0465,6.0578,6.0596,6.05,6.0691,6.0724,6.0886,6.0958,6.0845,6.0858,6.1316,6.1323,6.1329,6.136,0,0,0,0,0,0,5.9911,5.996,6.0024,6.0156,6.0206,6.0442,6.0395,6.0413,6.0489,6.0487,6.0622,6.0641,6.069,6.0865,6.09,6.0975,6.0868,6.131,6.1319,6.1327,6.1353,6.1367,6.1379,0,0,0,0,0,5.9895,6.0022,6.0027,6.0067,6.0288,6.0446,6.0475,6.053,6.0494,6.056,6.0632,6.0636,6.0944,6.0882,6.0921,6.1002,6.1306,6.1316,6.1327,6.1347,6.1365,6.1379,0,0,0,0,0,0,5.9894,6.004,6.0047,6.022,6.0321,6.0449,6.0533,6.0546,6.0658,6.0652,6.0715,6.0745,6.0906,6.0969,6.0897,6.117,6.1121,6.114,6.1124,6.1141,6.1154,6.1137,6.088,0,0,0,0,0,5.9914,6.003,6.0151,6.0292,6.0342,6.0429,6.05,6.0534,6.064,6.0683,6.0767,6.087,6.0991,6.1069,6.1185,6.1361,6.1393,6.1436,6.1449,6.1459,6.1476,6.1577,6.1599,6.1366,6.1366,6.1366,0,0,5.9957,6.0051,6.012,6.0294,6.0376,6.0496,6.0465,6.0592,6.0682,6.0702,6.0862,6.0927,6.1046,6.1217,6.1296,6.1275,6.1547,6.1473,6.148,6.1492,6.159,6.1612,6.1632,6.1374,6.1372,6.1371,0,0,6.0097,6.0178,6.0306,6.0389,6.0514,6.0571,6.0601,6.0729,6.0774,6.0934,6.0953,6.106,6.1265,6.1351,6.1421,6.1594,6.1603,6.163,6.17,6.1798,6.1816,6.1833,6.1898,6.192,6.1646,6.1646,6.1646,0,6.0134,6.0315,6.037,6.0499,6.0576,6.06,6.0731,6.0808,6.0964,6.1018,6.0991,6.1251,6.1333,6.1525,6.1568,6.1622,6.1661,6.1617,6.1809,6.1826,6.1843,6.1906,6.193,6.1648,6.1648,6.1648,6.1648,0,6.0357,6.0482,6.0571,6.0723,6.0809,6.0938,6.1014,6.1095,6.1121,6.1181,6.1346,6.1444,6.1583,6.163,6.1656,6.1828,6.1811,6.1796,6.1748,6.1867,6.1927,6.1951,6.1652,6.1651,6.1651,6.165,0,0,6.0505,6.0686,6.0718,6.0788,6.0928,6.1026,6.1156,6.1292,6.1363,6.1469,6.1582,6.1755,6.1743,6.1822,6.1858,6.1943,6.2079,6.1918,6.1922,6.1948,6.2277,6.2291,6.2318,6.2084,6.2089,6.2092,6.2269,0,6.0663,6.0897,6.0951,6.1152,6.1271,6.1295,6.1409,6.1507,6.1566,6.1676,6.1741,6.1865,6.1837,6.1886,6.1971,6.2044,6.2146,6.2031,6.2192,6.2197,6.2165,6.2349,6.2363,6.2525,6.2292,6.2296,6.2299,0,6.088,6.0993,6.1206,6.1333,6.1385,6.1486,6.1617,6.172,6.1832,6.187,6.1959,6.1987,6.2124,6.2067,6.226,6.2181,6.2249,6.2295,6.2302,6.2322,6.2258,6.2377,6.2577,6.2603,6.2336,6.2333,6.233,0,6.0971,6.1176,6.1332,6.139,6.1541,6.1612,6.1678,6.1786,6.1866,6.1979,6.2032,6.2159,6.2229,6.2328,6.2389,6.2342,6.2578,6.2525,6.2615,6.2614,6.2666,6.2663,6.2884,6.2704,6.2703,6.2703,6.2702,0,6.1145,6.1275,6.1375,6.1471,6.1619,6.1679,6.1823,6.1889,6.1985,6.2095,6.2122,6.2225,6.2298,6.2411,6.2459,6.2613,6.2643,6.2679,6.2691,6.2679,6.2675,6.2727,6.2719,6.2709,6.2708,6.2707,6.2706,0,6.1273,6.1345,6.1516,6.1645,6.168,6.1784,6.1894,6.1988,6.2048,6.2187,6.2223,6.2317,6.2451,6.2521,6.2689,6.2721,6.2895,6.2899,6.2858,6.2864,6.2951,6.2944,6.3217,6.3257,6.3046,6.3048,6.305,0,6.1381,6.1483,6.1622,6.1698,6.1766,6.1887,6.1969,6.2031,6.2115,6.2252,6.2331,6.2466,6.2579,6.2793,6.2876,6.3005,6.3014,6.3101,6.3034,6.302,6.3021,6.3015,6.3027,6.3114,6.3116,6.3118,6.3119,0,6.1567,6.1598,6.1714,6.1844,6.1941,6.2046,6.2149,6.221,6.229,6.2382,6.2521,6.2608,6.278,6.2916,6.3051,6.3119,6.3134,6.3139,6.3167,6.3158,6.3132,6.3151,6.2895,6.3133,6.3132,6.3131,6.313,6.3129,6.1691,6.1784,6.1898,6.2027,6.2112,6.2209,6.2305,6.2377,6.2493,6.2639,6.2668,6.2816,6.2927,6.311,6.3182,6.3299,6.3281,6.3321,6.3332,6.3342,6.3348,6.311,6.3323,6.3323,6.3322,6.3322,6.3322,0,6.1882,6.1956,6.2075,6.222,6.2322,6.2326,6.2441,6.2527,6.2657,6.2759,6.287,6.303,6.3162,6.3255,6.339,6.3465,6.3476,6.3499,6.3496,6.3512,6.3354,6.3318,6.3489,6.3489,6.3489,6.3488,6.3488,6.3488,6.1993,6.2151,6.2196,6.2396,6.247,6.2615,6.2681,6.2771,6.2854,6.3032,6.3142,6.3202,6.3302,6.3444,6.3566,6.359,6.364,6.3664,6.3689,6.354,6.3523,6.3506,6.3473,6.3673,6.3673,6.3838,6.3839,6.384]}]]